Cadillac, MI

8:42 PM EDT on June 24, 2018 (GMT -0400)
Wexford County

Weather History for KCAD - August, 2017

Change the Weather History Date:

Saturday, August 12, 2017

  Actual Average Record
Temperature  
Mean Temperature 62 °F -  
Max Temperature 74 °F 75 °F 89 °F (1976)
Min Temperature 49 °F 48 °F 33 °F (1950)
Degree Days  
Heating Degree Days 2    
Growing Degree Days 12 (Base 50)    
Moisture  
Dew Point 55 °F    
Average Humidity 72    
Maximum Humidity 90    
Minimum Humidity 44    
Precipitation  
Precipitation 0.00 in - - ()
Sea Level Pressure  
Sea Level Pressure 30.00 in    
Wind  
Wind Speed 8 mph (NNW)    
Max Wind Speed 23 mph    
Max Gust Speed 33 mph    
Visibility 10 miles    
Events Rain    
Averages and records for this station are not official NWS values.
T = Trace of Precipitation, MM = Missing Value Source: NWS Daily Summary

Daily Weather History Graph

Daily Weather History Graph

Search for Another Location

Airport or City:

Astronomy

Aug. 12, 2017 Rise Set
Actual Time 6:41 AM EDT 8:50 PM EDT
Civil Twilight 6:10 AM EDT 9:22 PM EDT
Nautical Twilight 5:30 AM EDT 10:01 PM EDT
Astronomical Twilight 4:47 AM EDT 10:44 PM EDT
Moon 11:36 PM EDT (8/12) 11:46 AM EDT (8/12)
Length of Visible Light 15h 12m
Length of Day
14h 08m
Waning Gibbous, 75% of the Moon is Illuminated
Aug 12
Waning Gibbous
Aug 14
Last Quarter
Aug 21
New
Aug 29
First Quarter
Sep 6
Full

Hourly Weather History & Observations

Time (EDT) Temp. Dew Point Humidity Pressure Visibility Wind Dir Wind Speed Gust Speed Precip Events Conditions
12:14 AM 63.9 °F 59.0 °F 84% 29.95 in 10.0 mi NW 6.9 mph - N/A   Overcast
12:34 AM 63.5 °F 59.0 °F 85% 29.95 in 10.0 mi WNW 6.9 mph - N/A   Overcast
12:55 AM 63.5 °F 59.0 °F 85% 29.95 in 10.0 mi WNW 8.1 mph - N/A   Overcast
1:14 AM 63.7 °F 59.0 °F 85% 29.95 in 10.0 mi WNW 10.4 mph - N/A   Overcast
1:34 AM 63.7 °F 59.0 °F 85% 29.95 in 10.0 mi WNW 9.2 mph - N/A   Overcast
1:55 AM 63.5 °F 59.0 °F 85% 29.96 in 10.0 mi NW 9.2 mph - N/A   Overcast
2:14 AM 63.5 °F 58.6 °F 84% 29.96 in 10.0 mi WNW 10.4 mph - N/A   Overcast
2:35 AM 63.1 °F 58.5 °F 85% 29.96 in 10.0 mi NW 8.1 mph - N/A   Overcast
2:55 AM 63.3 °F 58.5 °F 84% 29.96 in 10.0 mi NW 6.9 mph - N/A   Overcast
3:14 AM 63.0 °F 58.6 °F 86% 29.96 in 10.0 mi NW 5.8 mph - N/A   Overcast
3:34 AM 62.8 °F 58.5 °F 86% 29.96 in 10.0 mi WNW 10.4 mph - N/A   Overcast
3:55 AM 62.6 °F 58.5 °F 86% 29.96 in 10.0 mi WNW 9.2 mph - N/A   Overcast
4:14 AM 62.4 °F 58.5 °F 87% 29.96 in 10.0 mi NW 10.4 mph - N/A   Overcast
4:34 AM 62.2 °F 58.5 °F 87% 29.96 in 10.0 mi WNW 6.9 mph - N/A   Overcast
4:55 AM 62.6 °F 58.3 °F 86% 29.95 in 10.0 mi NW 9.2 mph - N/A   Overcast
5:14 AM 62.6 °F 58.3 °F 86% 29.95 in 10.0 mi NW 6.9 mph - N/A   Overcast
5:34 AM 62.6 °F 58.5 °F 86% 29.96 in 10.0 mi NW 6.9 mph - N/A   Overcast
5:55 AM 62.8 °F 58.5 °F 86% 29.96 in 10.0 mi NW 5.8 mph - N/A   Overcast
6:14 AM 62.6 °F 58.6 °F 87% 29.96 in 10.0 mi WNW 6.9 mph - N/A   Overcast
6:34 AM 62.8 °F 58.6 °F 86% 29.96 in 10.0 mi NW 9.2 mph - N/A   Overcast
6:54 AM 62.8 °F 58.6 °F 86% 29.96 in 10.0 mi NW 8.1 mph - N/A Rain Light Rain
7:15 AM 62.8 °F 59.0 °F 87% 29.97 in 10.0 mi NNW 6.9 mph - N/A   Overcast
7:34 AM 62.8 °F 59.0 °F 87% 29.97 in 7.0 mi NW 10.4 mph 17.3 mph N/A Rain Light Rain
7:54 AM 62.8 °F 59.0 °F 87% 29.98 in 5.0 mi NNW 10.4 mph 16.1 mph N/A   Heavy Drizzle
8:15 AM 62.4 °F 58.6 °F 87% 29.99 in 10.0 mi NNW 8.1 mph - N/A Rain Rain
8:34 AM 62.2 °F 59.0 °F 89% 29.99 in 7.0 mi NNW 8.1 mph - N/A   Drizzle
8:54 AM 62.8 °F 59.2 °F 88% 30.00 in 10.0 mi NNW 8.1 mph - N/A   Overcast
9:15 AM 62.8 °F 59.2 °F 88% 30.00 in 10.0 mi NNW 9.2 mph - N/A   Overcast
9:34 AM 63.1 °F 59.2 °F 87% 30.00 in 10.0 mi NNW 6.9 mph - N/A   Overcast
9:54 AM 63.7 °F 58.6 °F 84% 30.00 in 10.0 mi NNW 5.8 mph - N/A   Overcast
10:15 AM 63.5 °F 58.1 °F 83% 30.01 in 10.0 mi NW 9.2 mph - N/A   Overcast
10:34 AM 63.9 °F 58.1 °F 81% 30.02 in 10.0 mi NNW 10.4 mph - N/A   Overcast
10:54 AM 65.3 °F 57.4 °F 76% 30.02 in 10.0 mi NNW 9.2 mph 17.3 mph N/A   Overcast
11:15 AM 66.2 °F 57.0 °F 72% 30.02 in 10.0 mi North 9.2 mph - N/A   Overcast
11:34 AM 66.2 °F 56.8 °F 72% 30.02 in 10.0 mi NNW 10.4 mph 16.1 mph N/A   Overcast
11:54 AM 67.3 °F 56.8 °F 69% 30.03 in 10.0 mi North 10.4 mph 18.4 mph N/A   Overcast
12:15 PM 68.0 °F 56.3 °F 66% 30.03 in 10.0 mi North 10.4 mph 18.4 mph N/A   Overcast
12:34 PM 70.5 °F 56.8 °F 62% 30.03 in 10.0 mi NNW 9.2 mph - N/A   Mostly Cloudy
12:54 PM 67.3 °F 56.5 °F 68% 30.03 in 10.0 mi North 9.2 mph - N/A   Mostly Cloudy
1:15 PM 70.5 °F 55.6 °F 59% 30.03 in 10.0 mi North 12.7 mph 16.1 mph N/A   Mostly Cloudy
1:34 PM 71.1 °F 55.9 °F 59% 30.03 in 10.0 mi North 8.1 mph - N/A   Scattered Clouds
1:54 PM 68.9 °F 55.2 °F 62% 30.03 in 10.0 mi NNW 8.1 mph - N/A   Mostly Cloudy
2:15 PM 74.1 °F 55.8 °F 53% 30.03 in 10.0 mi North 9.2 mph 18.4 mph N/A   Mostly Cloudy
2:34 PM 73.9 °F 54.7 °F 51% 30.03 in 10.0 mi NNW 21.9 mph 33.4 mph N/A   Mostly Cloudy
2:54 PM 74.5 °F 53.8 °F 48% 30.03 in 10.0 mi NNW 17.3 mph 28.8 mph N/A   Mostly Cloudy
3:14 PM 73.8 °F 52.0 °F 46% 30.03 in 10.0 mi North 13.8 mph 28.8 mph N/A   Overcast
3:34 PM 72.0 °F 52.9 °F 51% 30.03 in 10.0 mi NNW 18.4 mph 28.8 mph N/A   Mostly Cloudy
3:55 PM 73.0 °F 52.2 °F 48% 30.03 in 10.0 mi NW 18.4 mph 27.6 mph N/A   Overcast
4:14 PM 73.4 °F 51.3 °F 46% 30.03 in 10.0 mi NNW 13.8 mph 27.6 mph N/A   Scattered Clouds
4:34 PM 73.9 °F 50.9 °F 44% 30.03 in 10.0 mi NNW 18.4 mph 29.9 mph N/A   Clear
4:55 PM 72.9 °F 50.7 °F 46% 30.03 in 10.0 mi NNW 23.0 mph 33.4 mph N/A   Clear
5:14 PM 73.4 °F 52.0 °F 47% 30.03 in 10.0 mi WNW 10.4 mph 20.7 mph N/A   Clear
5:34 PM 73.2 °F 52.0 °F 47% 30.03 in 10.0 mi North 9.2 mph - N/A   Clear
5:55 PM 72.9 °F 51.4 °F 47% 30.03 in 10.0 mi NW 9.2 mph - N/A   Clear
6:14 PM 72.7 °F 50.4 °F 45% 30.02 in 10.0 mi NNW 8.1 mph - N/A   Clear
6:34 PM 72.3 °F 50.0 °F 45% 30.03 in 10.0 mi NNW 8.1 mph - N/A   Clear
6:55 PM 71.4 °F 48.2 °F 44% 30.03 in 10.0 mi NNW 9.2 mph 16.1 mph N/A   Clear
7:14 PM 70.7 °F 48.7 °F 46% 30.03 in 10.0 mi NNW 5.8 mph 16.1 mph N/A   Clear
7:35 PM 70.0 °F 49.3 °F 48% 30.03 in 10.0 mi NNW 5.8 mph - N/A   Clear
7:54 PM 68.9 °F 49.1 °F 49% 30.03 in 10.0 mi NNW 6.9 mph - N/A   Clear
8:14 PM 67.3 °F 50.2 °F 54% 30.03 in 10.0 mi Calm Calm - N/A   Clear
8:35 PM 65.7 °F 50.0 °F 57% 30.03 in 10.0 mi NNW 3.5 mph - N/A   Clear
8:54 PM 63.7 °F 50.2 °F 61% 30.03 in 10.0 mi Calm Calm - N/A   Clear
9:14 PM 61.2 °F 51.1 °F 69% 30.04 in 10.0 mi Calm Calm - N/A   Clear
9:35 PM 58.3 °F 51.6 °F 78% 30.04 in 10.0 mi Calm Calm - N/A   Clear
9:54 PM 56.5 °F 51.3 °F 83% 30.04 in 10.0 mi Calm Calm - N/A   Clear
10:14 PM 54.0 °F 50.4 °F 88% 30.05 in 10.0 mi Calm Calm - N/A   Clear
10:35 PM 52.5 °F 49.5 °F 89% 30.05 in 10.0 mi Calm Calm - N/A   Clear
10:54 PM 52.2 °F 49.3 °F 90% 30.05 in 10.0 mi Calm Calm - N/A   Clear
11:14 PM 51.6 °F 48.7 °F 90% 30.05 in 10.0 mi Calm Calm - N/A   Clear
11:35 PM 51.6 °F 48.7 °F 90% 30.05 in 10.0 mi Calm Calm - N/A   Clear
11:54 PM 49.8 °F 47.1 °F 90% 30.05 in 10.0 mi Calm Calm - N/A   Clear